QPF
0.00 0.00 0.00 0.00 0.00 0.00 0.00 0.00 0.00 0.00 0.00 0.00 0.00 0.00 0.00 0.00 0.00 0.00 0.00 0.00 0.00 0.00 0.00 0.00 0.00 0.00 0.00 0.00 0.00 0.00 0.00 0.01 0.02 0.03 0.04 0.02 0.01 0.00
0.00 0.00 0.00 0.00 0.00 0.00 0.00 0.00 0.00 0.00 0.00 0.00 0.00 0.00 0.00 0.00 0.00 0.00 0.00 0.00 0.00 0.00 0.00 0.00 0.00 0.00 0.00 0.00 0.00 0.00 0.00 0.01 0.01 0.02 0.03 0.02 0.00 0.00
0.00 0.00 0.00 0.00 0.00 0.00 0.00 0.00 0.00 0.00 0.00 0.00 0.00 0.00 0.00 0.00 0.00 0.00 0.00 0.00 0.00 0.00 0.00 0.00 0.00 0.00 0.00 0.00 0.00 0.00 0.01 0.01 0.03 0.03 0.02 0.01 0.00 0.00
0.00 0.00 0.01 0.00 0.00 0.00 0.00 0.00 0.00 0.00 0.00 0.00 0.00 0.00 0.00 0.00 0.00 0.00 0.00 0.00 0.00 0.00 0.00 0.00 0.00 0.00 0.00 0.00 0.00 0.00 0.00 0.01 0.01 0.01 0.00 0.00 0.00 0.00
0.01 0.02 0.01 0.01 0.00 0.00 0.00 0.00 0.00 0.00 0.00 0.00 0.00 0.00 0.00 0.00 0.00 0.00 0.00 0.00 0.00 0.00 0.00 0.00 0.00 0.00 0.00 0.00 0.00 0.00 0.00 0.01 0.00 0.00 0.00 0.00 0.00 0.00
0.02 0.04 0.02 0.00 0.00 0.00 0.00 0.00 0.00 0.00 0.00 0.00 0.00 0.00 0.00 0.00 0.00 0.00 0.00 0.00 0.00 0.00 0.00 0.00 0.00 0.00 0.00 0.00 0.00 0.00 0.01 0.01 0.00 0.00 0.00 0.00 0.00 0.00
0.08 0.04 0.02 0.00 0.00 0.00 0.00 0.00 0.00 0.00 0.00 0.00 0.00 0.00 0.00 0.00 0.00 0.00 0.00 0.00 0.00 0.00 0.00 0.00 0.00 0.00 0.00 0.00 0.00 0.00 0.00 0.00 0.00 0.00 0.00 0.00 0.00 0.00
0.07 0.03 0.01 0.00 0.00 0.00 0.00 0.00 0.00 0.00 0.00 0.00 0.00 0.00 0.00 0.00 0.00 0.00 0.00 0.01 0.00 0.00 0.00 0.00 0.00 0.00 0.00 0.00 0.00 0.00 0.00 0.00 0.00 0.00 0.00 0.00 0.00 0.00
0.04 0.01 0.00 0.00 0.00 0.00 0.00 0.00 0.00 0.00 0.00 0.00 0.00 0.00 0.00 0.00 0.00 0.01 0.01 0.00 0.00 0.00 0.00 0.00 0.00 0.00 0.00 0.00 0.00 0.00 0.00 0.00 0.00 0.00 0.00 0.01 0.01 0.01
0.03 0.01 0.00 0.00 0.00 0.00 0.00 0.00 0.00 0.00 0.00 0.00 0.00 0.00 0.00 0.00 0.00 0.01 0.00 0.00 0.00 0.00 0.00 0.00 0.00 0.00 0.00 0.00 0.00 0.00 0.00 0.00 0.00 0.00 0.01 0.01 0.01 0.01
0.03 0.01 0.00 0.00 0.00 0.00 0.00 0.00 0.00 0.00 0.00 0.00 0.00 0.00 0.00 0.00 0.00 0.00 0.00 0.00 0.00 0.00 0.00 0.02 0.00 0.00 0.00 0.00 0.00 0.00 0.00 0.00 0.00 0.01 0.01 0.01 0.00 0.00
0.02 0.01 0.00 0.00 0.00 0.00 0.00 0.00 0.00 0.00 0.00 0.00 0.00 0.00 0.00 0.00 0.00 0.00 0.00 0.01 0.01 0.01 0.00 0.05 0.00 0.01 0.02 0.00 0.00 0.00 0.00 0.00 0.01 0.01 0.00 0.00 0.01 0.00
0.02 0.01 0.00 0.00 0.00 0.00 0.00 0.00 0.00 0.00 0.00 0.00 0.00 0.00 0.00 0.00 0.00 0.00 0.00 0.00 0.01 0.01 0.00 0.05 0.02 0.02 0.02 0.00 0.00 0.00 0.00 0.00 0.01 0.01 0.00 0.00 0.00 0.00
0.01 0.00 0.00 0.00 0.00 0.00 0.00 0.00 0.00 0.00 0.00 0.00 0.00 0.00 0.00 0.00 0.00 0.00 0.00 0.00 0.00 0.01 0.00 0.01 0.02 0.03 0.03 0.01 0.00 0.00 0.00 0.00 0.01 0.03 0.03 0.02 0.04 0.03
0.01 0.00 0.00 0.00 0.00 0.00 0.00 0.00 0.00 0.00 0.00 0.00 0.00 0.00 0.00 0.00 0.00 0.00 0.00 0.00 0.00 0.00 0.00 0.00 0.00 0.00 0.01 0.01 0.01 0.00 0.01 0.00 0.04 0.09 0.11 0.10 0.14 0.09
0.00 0.00 0.00 0.00 0.00 0.00 0.00 0.00 0.00 0.00 0.00 0.00 0.00 0.00 0.00 0.00 0.00 0.00 0.00 0.00 0.00 0.00 0.00 0.00 0.01 0.00 0.00 0.00 0.00 0.01 0.01 0.05 0.06 0.12 0.18 0.14 0.18 0.24
0.00 0.00 0.00 0.00 0.00 0.00 0.00 0.00 0.00 0.00 0.00 0.00 0.00 0.00 0.00 0.00 0.00 0.00 0.00 0.00 0.00 0.00 0.00 0.00 0.00 0.00 0.00 0.00 0.00 0.01 0.02 0.04 0.08 0.16 0.21 0.16 0.22 0.28
0.00 0.00 0.00 0.00 0.00 0.00 0.00 0.00 0.00 0.00 0.00 0.00 0.00 0.00 0.00 0.00 0.00 0.00 0.00 0.00 0.00 0.00 0.00 0.00 0.00 0.00 0.00 0.00 0.01 0.01 0.01 0.05 0.08 0.14 0.26 0.23 0.33 0.39
0.00 0.00 0.00 0.00 0.00 0.00 0.00 0.00 0.00 0.00 0.00 0.00 0.00 0.00 0.00 0.00 0.00 0.00 0.00 0.00 0.00 0.00 0.00 0.00 0.00 0.00 0.00 0.00 0.00 0.01 0.02 0.05 0.06 0.07 0.18 0.25 0.35 0.63
0.00 0.00 0.00 0.00 0.00 0.00 0.00 0.00 0.00 0.00 0.00 0.00 0.00 0.00 0.00 0.00 0.00 0.00 0.00 0.00 0.00 0.00 0.00 0.00 0.00 0.00 0.00 0.00 0.01 0.03 0.03 0.03 0.03 0.05 0.15 0.26 0.47 0.67
0.00 0.00 0.00 0.00 0.00 0.00 0.00 0.00 0.00 0.00 0.00 0.00 0.00 0.00 0.00 0.00 0.00 0.00 0.00 0.00 0.00 0.00 0.00 0.00 0.00 0.00 0.00 0.00 0.00 0.00 0.03 0.06 0.04 0.04 0.10 0.12 0.21 0.26
0.00 0.00 0.00 0.00 0.00 0.00 0.00 0.00 0.00 0.00 0.00 0.00 0.00 0.00 0.00 0.00 0.00 0.00 0.00 0.00 0.00 0.00 0.00 0.00 0.00 0.00 0.00 0.00 0.00 0.00 0.02 0.05 0.07 0.09 0.12 0.06 0.03 0.06
0.00 0.00 0.00 0.00 0.00 0.00 0.00 0.00 0.00 0.00 0.00 0.00 0.00 0.00 0.00 0.00 0.00 0.00 0.00 0.00 0.00 0.00 0.00 0.00 0.00 0.00 0.00 0.00 0.00 0.00 0.01 0.02 0.04 0.05 0.19 0.20 0.12 0.09
MSLP
1018.02 1018.56 1019.02 1019.67 1020.26 1020.50 1020.97 1021.30 1021.81 1022.22 1021.84 1020.94 1020.84 1020.37 1020.50 1020.44 1019.85 1019.29 1019.07 1018.59 1018.03 1017.55 1016.96 1016.39 1015.79 1015.23 1014.50 1014.02 1013.38 1012.72 1012.02 1011.39 1010.78 1009.93 1009.30 1008.86 1008.61 1008.55
1018.28 1018.81 1019.34 1019.96 1020.63 1020.83 1021.32 1021.72 1021.94 1022.21 1022.28 1021.40 1021.14 1020.97 1020.98 1020.62 1020.07 1019.70 1019.24 1018.51 1017.95 1017.35 1016.74 1016.00 1015.23 1014.69 1014.12 1013.27 1012.68 1012.03 1011.32 1010.69 1010.04 1009.44 1008.89 1008.39 1008.11 1007.99
1018.45 1018.91 1019.82 1020.62 1020.83 1021.30 1021.66 1022.07 1022.40 1022.46 1022.51 1021.89 1021.36 1021.08 1020.98 1020.48 1019.90 1019.48 1018.67 1018.16 1017.63 1016.96 1016.05 1015.54 1014.83 1014.10 1013.34 1012.58 1012.00 1011.55 1010.96 1010.37 1009.77 1009.19 1008.70 1008.26 1007.96 1007.50
1018.43 1019.14 1019.94 1020.96 1021.25 1021.59 1021.84 1022.29 1022.57 1022.49 1022.54 1022.21 1021.48 1021.23 1020.67 1019.99 1019.60 1019.09 1018.22 1018.03 1017.17 1016.25 1015.43 1014.90 1014.18 1013.38 1012.61 1012.11 1011.48 1010.90 1010.22 1009.70 1009.20 1008.78 1008.32 1007.85 1007.28 1006.92
1018.23 1018.87 1020.53 1021.02 1021.79 1021.69 1021.95 1022.33 1022.56 1022.42 1022.33 1022.25 1021.95 1021.16 1020.42 1019.95 1019.32 1018.56 1018.00 1017.35 1016.85 1015.95 1015.05 1014.32 1013.75 1012.98 1012.11 1011.46 1010.85 1010.11 1009.47 1008.89 1008.51 1008.12 1007.65 1007.22 1006.73 1006.30
1018.51 1018.83 1020.32 1020.91 1021.47 1021.62 1022.04 1022.32 1022.41 1022.33 1021.95 1021.87 1021.48 1020.81 1020.25 1019.71 1019.14 1018.41 1017.47 1017.25 1016.25 1015.35 1014.64 1014.04 1013.26 1012.53 1011.42 1010.72 1010.17 1009.39 1008.72 1008.19 1007.76 1007.22 1006.73 1006.28 1005.73 1005.43
1019.13 1019.47 1020.32 1021.04 1021.19 1021.31 1021.78 1022.19 1022.15 1022.04 1021.78 1021.61 1021.19 1020.70 1020.24 1019.70 1019.20 1018.41 1017.76 1016.87 1015.98 1015.08 1014.42 1013.72 1012.70 1011.95 1010.96 1010.15 1009.59 1008.87 1008.22 1007.66 1007.16 1006.54 1005.97 1005.42 1004.75 1004.46
1019.56 1020.16 1020.47 1021.00 1020.93 1021.35 1021.53 1021.66 1021.75 1021.82 1021.61 1021.35 1021.22 1020.86 1020.38 1019.97 1019.42 1018.75 1018.10 1017.21 1015.59 1014.93 1014.16 1013.12 1012.77 1011.68 1010.68 1009.88 1009.09 1008.38 1007.70 1007.07 1006.59 1005.79 1005.07 1004.28 1003.47 1003.09
1020.11 1020.05 1020.75 1020.99 1021.08 1021.31 1021.69 1021.81 1021.69 1021.53 1021.18 1021.06 1020.95 1020.63 1020.27 1019.88 1019.31 1018.52 1018.18 1017.64 1016.56 1015.17 1014.48 1013.18 1012.57 1011.52 1010.45 1009.57 1008.66 1007.75 1007.10 1006.45 1005.86 1004.91 1003.94 1002.90 1002.10 1001.43
1019.55 1020.26 1020.70 1021.09 1021.41 1021.47 1021.74 1021.93 1021.74 1021.36 1020.79 1020.52 1020.47 1020.24 1019.96 1019.42 1019.14 1018.56 1018.24 1017.39 1016.33 1015.27 1014.59 1013.44 1012.36 1011.36 1010.25 1009.32 1008.12 1007.30 1006.56 1005.88 1005.01 1003.90 1002.81 1001.63 1000.89 999.69
1019.53 1020.49 1020.75 1021.03 1021.30 1021.41 1021.88 1022.10 1021.91 1020.93 1020.18 1019.94 1019.71 1019.64 1019.32 1018.93 1018.60 1018.47 1018.17 1017.21 1015.92 1014.77 1014.14 1013.80 1012.40 1010.88 1009.98 1008.86 1008.04 1007.22 1006.47 1005.51 1004.29 1003.00 1001.75 1000.62 999.80 998.63
1019.78 1020.54 1020.70 1020.76 1021.13 1021.39 1021.77 1021.82 1021.64 1020.77 1020.27 1019.92 1019.74 1019.64 1019.15 1018.75 1018.41 1018.76 1018.39 1017.26 1016.13 1014.55 1013.94 1013.52 1012.25 1011.71 1010.08 1008.68 1008.26 1007.43 1006.53 1005.26 1003.95 1002.56 1001.21 1000.20 999.13 998.27
1019.60 1020.24 1020.30 1020.72 1020.99 1021.21 1021.31 1021.32 1020.97 1020.32 1020.16 1020.05 1019.88 1019.80 1019.43 1018.92 1018.90 1018.88 1018.24 1017.22 1016.39 1015.74 1014.92 1014.39 1013.31 1012.47 1012.09 1010.31 1008.94 1007.80 1006.86 1005.56 1004.24 1002.55 1001.01 999.71 998.04 998.20
1018.93 1019.58 1020.23 1020.68 1020.88 1020.98 1021.06 1021.02 1020.66 1020.35 1020.16 1020.25 1020.23 1020.12 1019.70 1019.37 1019.10 1018.59 1017.92 1016.83 1016.12 1015.67 1015.03 1014.74 1014.16 1013.39 1012.58 1011.25 1010.34 1008.49 1007.26 1006.11 1004.99 1003.30 1001.59 999.69 997.84 997.36
1018.62 1019.45 1020.11 1020.51 1020.69 1020.92 1020.92 1020.86 1020.52 1020.24 1020.53 1020.52 1020.50 1020.26 1019.63 1019.09 1018.99 1018.74 1017.97 1017.09 1016.16 1015.83 1015.00 1014.52 1014.66 1014.04 1013.26 1012.83 1012.03 1010.35 1008.46 1006.98 1006.01 1004.64 1003.03 1001.53 1000.93 1000.30
1018.94 1019.67 1020.01 1020.26 1020.55 1020.84 1020.83 1020.62 1020.47 1020.48 1020.79 1020.75 1020.54 1020.05 1019.55 1019.02 1018.98 1018.69 1017.83 1017.10 1016.41 1015.81 1014.83 1014.24 1014.28 1014.48 1013.70 1013.34 1012.90 1011.35 1010.10 1009.01 1007.45 1006.27 1004.96 1003.39 1002.89 1002.69
1019.08 1019.72 1020.02 1020.41 1020.72 1020.94 1020.73 1020.47 1020.54 1020.73 1020.81 1020.72 1020.47 1020.12 1019.63 1019.31 1018.99 1018.64 1018.00 1017.37 1016.77 1015.80 1015.10 1014.75 1014.20 1014.52 1014.38 1013.96 1012.95 1012.39 1011.40 1009.86 1008.61 1007.59 1006.30 1005.41 1005.43 1005.43
1019.15 1019.55 1019.97 1020.42 1020.71 1020.79 1020.68 1020.84 1020.81 1020.78 1020.74 1020.72 1020.56 1020.21 1019.97 1019.59 1019.12 1018.69 1018.36 1018.19 1017.26 1016.06 1015.22 1015.16 1015.26 1014.99 1014.72 1014.35 1014.25 1013.09 1012.34 1011.54 1010.46 1009.21 1008.48 1007.78 1008.49 1008.89
1018.95 1019.47 1019.86 1020.16 1020.39 1020.50 1020.57 1020.94 1021.01 1020.72 1020.65 1020.55 1020.27 1020.24 1020.06 1019.64 1019.13 1018.59 1018.43 1018.38 1017.82 1016.85 1016.29 1016.39 1016.39 1016.51 1016.40 1016.07 1015.77 1014.52 1013.79 1013.06 1012.34 1011.58 1011.05 1010.64 1010.98 1011.89
1018.77 1019.21 1019.46 1019.78 1020.09 1020.17 1020.51 1020.71 1020.49 1020.52 1020.52 1020.32 1020.09 1020.30 1020.11 1019.60 1019.25 1019.04 1018.68 1018.55 1018.32 1017.43 1016.87 1017.33 1017.88 1017.84 1017.43 1017.56 1017.18 1016.19 1015.24 1014.11 1013.62 1013.32 1013.20 1012.91 1012.95 1013.09
1018.53 1018.74 1018.99 1019.40 1019.59 1019.80 1020.03 1020.18 1020.39 1020.63 1020.83 1020.53 1020.31 1020.19 1020.16 1019.79 1019.37 1019.19 1018.85 1019.04 1018.39 1017.75 1017.61 1017.94 1018.51 1018.41 1018.02 1017.72 1017.67 1017.14 1016.79 1016.28 1015.39 1014.81 1014.69 1014.07 1014.23 1014.65
1017.92 1018.30 1018.73 1018.95 1019.17 1019.51 1019.82 1020.18 1020.56 1020.75 1020.66 1020.54 1020.45 1020.25 1019.93 1019.68 1019.42 1019.20 1018.64 1018.75 1019.14 1018.54 1018.47 1018.39 1018.48 1018.60 1018.79 1018.75 1018.97 1018.64 1018.15 1017.59 1016.83 1016.27 1016.06 1015.95 1016.37 1017.03
1017.34 1017.71 1018.13 1018.51 1018.84 1018.97 1019.36 1019.89 1020.43 1020.72 1020.58 1020.69 1020.56 1020.24 1020.00 1019.65 1019.34 1019.38 1019.11 1018.96 1018.57 1018.81 1018.67 1019.01 1019.23 1019.56 1019.70 1019.88 1019.70 1019.71 1019.42 1019.08 1018.91 1018.42 1018.75 1018.67 1018.71 1019.16
Thickness
5591 5585 5578 5572 5564 5558 5551 5545 5537 5530 5528 5527 5521 5515 5505 5496 5491 5485 5476 5463 5450 5436 5423 5410 5399 5388 5381 5374 5370 5366 5363 5360 5359 5361 5363 5366 5372 5379
5578 5571 5565 5558 5550 5545 5537 5530 5524 5517 5511 5513 5506 5499 5489 5483 5476 5468 5460 5446 5433 5420 5405 5396 5385 5376 5369 5366 5361 5355 5350 5345 5342 5341 5342 5349 5358 5366
5565 5560 5550 5542 5537 5530 5524 5516 5508 5503 5497 5495 5492 5486 5478 5473 5466 5456 5446 5432 5419 5405 5394 5382 5369 5365 5361 5357 5350 5341 5334 5330 5327 5325 5326 5330 5342 5355
5554 5548 5538 5528 5521 5516 5511 5502 5495 5491 5486 5482 5479 5474 5469 5465 5456 5447 5434 5416 5405 5393 5384 5371 5360 5355 5352 5345 5336 5330 5325 5320 5315 5311 5312 5318 5331 5345
5546 5538 5522 5515 5505 5503 5498 5490 5484 5481 5477 5471 5465 5463 5460 5453 5447 5436 5423 5408 5391 5379 5374 5360 5353 5347 5343 5335 5327 5324 5321 5317 5311 5306 5306 5312 5325 5339
5531 5526 5513 5505 5496 5492 5486 5479 5474 5470 5468 5462 5458 5454 5450 5443 5434 5426 5415 5395 5387 5375 5369 5352 5351 5342 5338 5331 5327 5325 5323 5319 5313 5310 5311 5317 5329 5340
5513 5510 5500 5491 5487 5483 5475 5468 5465 5462 5458 5452 5448 5443 5439 5431 5421 5411 5400 5390 5380 5372 5366 5350 5351 5342 5337 5333 5328 5326 5324 5322 5319 5318 5319 5324 5335 5344
5498 5493 5488 5481 5477 5471 5466 5461 5457 5452 5448 5441 5436 5433 5425 5415 5404 5393 5382 5375 5379 5371 5361 5351 5344 5339 5337 5332 5329 5328 5326 5325 5323 5327 5330 5336 5345 5353
5485 5482 5473 5467 5464 5460 5453 5448 5446 5443 5441 5436 5428 5422 5413 5403 5393 5384 5370 5360 5353 5355 5352 5348 5343 5337 5336 5332 5330 5330 5327 5325 5325 5331 5337 5346 5355 5363
5477 5468 5461 5454 5448 5445 5441 5435 5433 5432 5432 5429 5421 5412 5402 5394 5382 5373 5363 5357 5349 5344 5342 5344 5342 5336 5336 5332 5332 5330 5328 5326 5327 5334 5342 5353 5360 5372
5464 5453 5448 5443 5438 5434 5426 5420 5419 5423 5425 5420 5414 5404 5396 5385 5376 5366 5356 5353 5354 5348 5342 5337 5343 5343 5335 5333 5331 5329 5329 5328 5332 5339 5348 5358 5365 5381
5447 5440 5436 5434 5427 5423 5415 5413 5409 5415 5414 5411 5403 5394 5387 5378 5368 5354 5347 5348 5345 5352 5342 5339 5340 5337 5343 5335 5332 5329 5329 5332 5337 5344 5354 5362 5373 5386
5436 5428 5426 5421 5417 5413 5410 5407 5407 5410 5406 5400 5392 5384 5376 5367 5357 5346 5340 5343 5340 5334 5332 5330 5331 5330 5322 5328 5327 5328 5330 5333 5339 5349 5360 5369 5386 5392
5429 5421 5414 5409 5407 5404 5401 5400 5401 5400 5396 5389 5382 5374 5366 5357 5348 5343 5338 5340 5337 5333 5331 5325 5322 5323 5321 5321 5320 5327 5329 5333 5339 5348 5360 5377 5396 5406
5419 5410 5403 5399 5397 5394 5393 5391 5392 5390 5383 5377 5369 5362 5360 5356 5345 5338 5333 5333 5334 5330 5329 5327 5318 5318 5318 5311 5309 5315 5323 5330 5334 5342 5354 5370 5378 5389
5403 5395 5391 5389 5387 5384 5382 5382 5381 5377 5369 5364 5359 5356 5353 5348 5339 5335 5335 5333 5329 5327 5331 5328 5322 5315 5318 5312 5306 5313 5317 5320 5328 5338 5349 5364 5374 5383
5387 5381 5380 5376 5373 5371 5372 5371 5369 5364 5359 5354 5349 5347 5345 5338 5335 5332 5331 5329 5328 5330 5330 5326 5324 5314 5316 5313 5313 5312 5315 5325 5329 5340 5352 5362 5369 5376
5374 5372 5370 5365 5363 5361 5360 5358 5356 5352 5349 5344 5341 5338 5333 5330 5329 5328 5325 5319 5322 5328 5330 5324 5316 5311 5313 5313 5309 5314 5318 5324 5328 5340 5348 5355 5356 5362
5364 5362 5360 5356 5353 5353 5351 5347 5343 5342 5340 5336 5335 5330 5324 5324 5324 5325 5322 5315 5314 5323 5324 5314 5307 5301 5296 5294 5301 5308 5313 5318 5323 5329 5336 5340 5343 5346
5356 5354 5353 5349 5346 5345 5342 5339 5338 5333 5330 5329 5328 5321 5317 5317 5317 5316 5315 5311 5305 5310 5320 5310 5298 5297 5298 5295 5295 5302 5306 5318 5321 5324 5328 5330 5331 5337
5348 5347 5345 5341 5339 5336 5332 5329 5326 5320 5315 5316 5316 5314 5309 5308 5310 5309 5310 5305 5301 5307 5312 5304 5293 5293 5296 5298 5300 5303 5301 5303 5311 5320 5324 5333 5333 5335
5342 5338 5333 5331 5329 5326 5322 5318 5312 5308 5307 5307 5305 5304 5303 5302 5303 5303 5308 5300 5291 5298 5301 5299 5295 5290 5289 5290 5288 5290 5297 5302 5310 5316 5320 5325 5325 5325
5332 5329 5324 5321 5319 5318 5312 5306 5300 5297 5298 5295 5291 5293 5294 5295 5296 5294 5295 5294 5295 5293 5294 5291 5289 5283 5281 5281 5280 5283 5288 5293 5294 5302 5301 5304 5307 5309